Regional Weather Roundup
Issued by NWS

Home | Current Version | Previous Version | Graphics & Text | Print | Product List | Glossary On
Versions: 1 2 3 4 5 6 7 8 9 10 11 12 13 14 15 16 17 18 19 20 21 22 23 24 25 26 27 28 29 30 31 32 33 34 35 36 37 38 39 40 41 42 43 44 45 46 47 48 49 50
000
ASUS44 KMEG 051800
RWRTN
TENNESSEE HOURLY STATE WEATHER ROUNDUP
NATIONAL WEATHER SERVICE MEMPHIS TN
1200 PM CST THU MAR 05 2015

TNZ002-004-019-021-049-052-054-088>092-051900-
WEST TENNESSEE

CITY           SKY/WX    TMP DP  RH WIND       PRES   REMARKS
MEMPHIS INTL   PTSUNNY   28  16  60 N12       30.52S WCI  18
NWS MEMPHIS      N/A     28 N/A N/A MISG        N/A
JACKSON        PTSUNNY   25  11  55 N14       30.49S WCI  13
DYERSBURG      FAIR      25   3  39 N12       30.54R WCI  14
UNION CITY       N/A     23  14  68 N15       30.50R WCI  10
PARIS            N/A     21   9  58 N9        30.46F WCI  11
LEXINGTON      CLOUDY    21  16  79 N9        30.43S WCI  11
SAVANNAH       CLOUDY    21  18  86 N15       30.44R WCI   8
$$

TNZ008-025-027-028-033-062-065-066-051900-
NORTH MIDDLE TENNESSEE

CITY           SKY/WX    TMP DP  RH WIND       PRES   REMARKS
NASHVILLE      CLOUDY    23  18  81 NW12      30.42R WCI  12
CLARKSVILLE    CLOUDY    23  13  65 N15       30.45R WCI  10
COOKEVILLE     CLOUDY    25  21  86 N8        30.27R WCI  16
CROSSVILLE     CLOUDY    24  20  84 N16       30.18R FOG     WCI  11
$$

TNZ061-075-076-078-094-096-097-051900-
SOUTH MIDDLE TENNESSEE

CITY           SKY/WX    TMP DP  RH WIND       PRES   REMARKS
FAYETTEVILLE   CLOUDY    21  19  93 N8          N/A  WCI  12
TULLAHOMA      CLOUDY    21  19  93 NW15        N/A  WCI   8
WINCHESTER     CLOUDY    25  21  86 N10       30.28R WCI  15
COLUMBIA         N/A     21  21 100 N6        30.37R WCI  14
SHELBYVILLE    CLOUDY    25  21  86 N13       30.35R WCI  13
$$

TNZ017-018-042-046-047-051900-
NORTHEAST TENNESSEE

CITY           SKY/WX    TMP DP  RH WIND       PRES   REMARKS
TRI CITIES     LGT RAIN  33  31  92 N8        30.08F WCI  26
ELIZABETHTON   LGT RAIN  32  30  93 CALM      30.03F
$$

TNZ012-013-036-069-073-074-051900-
CENTRAL EAST TENNESSEE

CITY           SKY/WX    TMP DP  RH WIND       PRES   REMARKS
KNOXVILLE      CLOUDY    31  28  89 N14       30.14R WCI  21
OAK RIDGE      CLOUDY    32  28  85 NE9       30.16R WCI  24
GATLINBURG     CLOUDY    34  32  93 NW10      30.09R WCI  26
$$

TNZ083-085-099-051900-
SOUTHEAST TENNESSEE

CITY           SKY/WX    TMP DP  RH WIND       PRES   REMARKS
CHATTANOOGA    CLOUDY    37  32  82 NW15      30.17R WCI  28
$$

SKY/WX REPORTED AS FAIR MEANS FEW OR NO CLOUDS BELOW
12 THOUSAND FEET.




USA.gov is the U.S. government's official web portal to all federal, state and local government web resources and services.